[[{"header":{"parameterUnit":"m.s-1","parameterCategory":1,"la1":30.2991,"la2":30.254,"lo1":-89.0895,"lo2":-89.0444,"dy":0.0017,"dx":0.0017,"nx":28,"ny":28,"refTime":"2023-10-21T03:00:00:Z","depth":0,"parameterNumber":2,"parameterNumberName":"U-component_of_WINDS"},"data":[0,0,0,0,0,0,0,0,0,0,0,0,0,0,0,0,0,0,0,0,0,0,0,0,0,0,0,0,0,0,0,0,0,0,0,0,0,0,0,0,0,0,0,0,0,0,0,0,0,0,0,0,0,0,0,0,0,0,3.1423,3.1423,0,3.1465,3.1466,3.1466,3.1363,3.136,3.1357,3.1354,3.1399,3.1403,3.1407,0,0,0,0,0,0,0,0,0,0,0,0,0,3.1256,3.126,3.1423,3.1423,3.1424,3.1465,3.1466,3.1467,3.1364,3.136,3.1356,3.1352,3.1398,3.1403,3.1408,0,0,0,0,0,0,0,0,0,0,0,0,0,3.1317,3.1261,3.1423,3.1377,3.1374,3.1465,3.1466,3.1467,3.1365,3.136,3.1355,3.135,3.1396,3.1402,3.1408,3.1546,0,0,3.1428,3.1431,0,0,0,0,0,0,0,0,3.1314,3.1323,3.1384,3.1381,3.1377,3.1404,3.1424,3.1493,3.1366,3.1368,3.1353,3.1348,3.1405,3.141,3.1429,3.1548,3.155,3.1429,3.1432,3.1435,3.1437,0,0,0,0,0,0,0,3.1309,3.1321,3.144,3.1385,3.1381,3.1356,3.136,3.1437,3.1414,3.1368,3.136,3.1367,3.1402,3.1423,3.1429,3.1551,3.1428,3.1434,3.1438,3.1441,3.179,3.1795,0,0,0,0,0,0,3.1311,3.1318,3.1438,3.1441,3.1332,3.1363,3.1367,3.14,3.1412,3.1409,3.1371,3.1362,3.1415,3.1422,3.143,3.1595,3.1435,3.1441,3.1445,3.1784,3.1791,3.1797,0,0,0,0,0,0,3.1307,3.1322,3.1436,3.1377,3.139,3.1372,3.141,3.1404,3.1424,3.1415,3.141,3.1396,3.1411,3.1421,3.1519,3.1595,3.1444,3.145,3.1778,3.1786,3.1794,3.1923,0,0,0,0,0,0,3.1303,3.1322,3.1372,3.1379,3.1394,3.1523,3.1414,3.1408,3.1436,3.1424,3.1437,3.1435,3.1408,3.151,3.1525,3.1601,3.1455,3.1771,3.1782,3.1791,3.1912,3.1935,3.1954,0,0,0,0,0,3.1297,3.1407,3.1376,3.1391,3.1457,3.1528,3.1536,3.1502,3.1442,3.1494,3.1489,3.1435,3.1584,3.1521,3.1537,3.1616,3.1766,3.1779,3.1791,3.1903,3.193,3.1954,0,0,0,0,0,0,3.1409,3.1407,3.1372,3.1486,3.1508,3.151,3.1574,3.1532,3.1571,3.1559,3.1516,3.152,3.1627,3.1631,3.156,3.1752,3.1665,3.1681,3.1745,3.1771,3.1792,3.1789,3.146,0,0,0,0,0,3.1447,3.1504,3.1499,3.1601,3.1613,3.1593,3.1622,3.1595,3.1615,3.1624,3.1625,3.1649,3.1701,3.1736,3.1784,3.1913,3.1916,3.1975,3.1997,3.2014,3.2028,3.21,3.2128,3.1837,3.1837,3.1837,0,0,3.1525,3.1531,3.157,3.1623,3.1637,3.1699,3.1601,3.1669,3.1715,3.1634,3.1727,3.173,3.1753,3.1868,3.1918,3.1875,3.211,3.203,3.2043,3.2048,3.2116,3.2143,3.2168,3.1845,3.1844,3.1843,0,0,3.17,3.171,3.1797,3.1813,3.1835,3.1821,3.1843,3.1852,3.1851,3.1943,3.1885,3.194,3.2031,3.2051,3.2073,3.2261,3.2214,3.2278,3.2388,3.2459,3.2482,3.2502,3.2571,3.2596,3.2292,3.2293,3.2293,0,3.1795,3.1884,3.1847,3.1921,3.1947,3.1878,3.1968,3.1986,3.2023,3.2044,3.1994,3.2109,3.212,3.224,3.2286,3.2306,3.2331,3.2275,3.2481,3.2501,3.2519,3.2585,3.2611,3.23,3.2299,3.2299,3.2298,0,3.2002,3.2065,3.2133,3.2172,3.2206,3.2287,3.2264,3.2304,3.2275,3.2267,3.2364,3.2375,3.2425,3.2452,3.2423,3.257,3.2542,3.2488,3.24,3.2555,3.2616,3.2641,3.2311,3.2309,3.2306,3.2304,0,0,3.2244,3.2264,3.229,3.2308,3.233,3.2379,3.2459,3.2508,3.2544,3.2574,3.2641,3.2721,3.2673,3.2698,3.2672,3.2734,3.2886,3.2672,3.2672,3.2713,3.3051,3.3092,3.3121,3.2855,3.286,3.2863,3.305,0,3.2419,3.2555,3.2526,3.266,3.272,3.2658,3.2728,3.2751,3.2747,3.2798,3.2794,3.2853,3.2783,3.2798,3.2857,3.2855,3.2953,3.2841,3.2919,3.2922,3.2915,3.3153,3.3196,3.337,3.3073,3.3077,3.308,0,3.2639,3.2678,3.2819,3.2835,3.2859,3.2922,3.2967,3.3017,3.3042,3.3035,3.3066,3.3029,3.3111,3.3023,3.3137,3.3062,3.3092,3.3097,3.3103,3.3109,3.301,3.3167,3.3425,3.3452,3.3117,3.3114,3.3111,0,3.2805,3.2892,3.2989,3.3006,3.3026,3.3073,3.3084,3.3104,3.3137,3.3178,3.3199,3.3248,3.3276,3.3316,3.3294,3.3232,3.3413,3.3322,3.3411,3.3412,3.3452,3.3449,3.372,3.3471,3.3471,3.347,3.347,0,3.3002,3.3092,3.3064,3.3123,3.3223,3.319,3.329,3.3293,3.3313,3.3374,3.3323,3.3382,3.3349,3.3406,3.339,3.3489,3.3501,3.3499,3.3494,3.3504,3.3505,3.3523,3.3511,3.3477,3.3476,3.3474,3.3473,0,3.3203,3.3188,3.3289,3.3302,3.3307,3.338,3.3391,3.3448,3.3442,3.352,3.3536,3.3527,3.3591,3.3574,3.3644,3.3634,3.3759,3.3738,3.375,3.3745,3.3836,3.3828,3.4128,3.4167,3.3892,3.3895,3.3897,0,3.333,3.3398,3.3418,3.3455,3.347,3.353,3.3565,3.3536,3.3574,3.3611,3.3664,3.3725,3.3771,3.3878,3.3878,3.3933,3.3914,3.4015,3.3921,3.3931,3.3917,3.3914,3.3921,3.4034,3.4037,3.4039,3.4041,0,3.3558,3.3549,3.3599,3.3649,3.3692,3.373,3.3763,3.3796,3.3771,3.3817,3.3883,3.3919,3.3992,3.4054,3.4105,3.4118,3.4077,3.4071,3.4095,3.4106,3.4111,3.4112,3.3802,3.4064,3.4062,3.406,3.4059,3.4058,3.3727,3.3785,3.381,3.3869,3.3892,3.3925,3.398,3.3982,3.4036,3.4093,3.4074,3.4151,3.4178,3.4243,3.4262,3.4323,3.4284,3.4318,3.4327,3.4336,3.4348,3.4102,3.4332,3.4331,3.4331,3.433,3.4329,0,3.3953,3.3967,3.4022,3.4071,3.412,3.4077,3.4113,3.4156,3.4224,3.4253,3.4301,3.4379,3.444,3.4447,3.4505,3.4552,3.4535,3.4568,3.4565,3.4569,3.4378,3.4352,3.4581,3.4581,3.4581,3.4581,3.4581,3.4581,3.4077,3.4174,3.4169,3.4278,3.4292,3.4366,3.4391,3.4422,3.4446,3.4535,3.4585,3.459,3.4611,3.4671,3.4726,3.4726,3.4751,3.4792,3.4786,3.4607,3.4582,3.4558,3.4534,3.4797,3.4797,3.4971,3.4973,3.4974]},{"header":{"parameterUnit":"m.s-1","parameterCategory":1,"la1":30.2991,"la2":30.254,"lo1":-89.0895,"lo2":-89.0444,"dy":0.0017,"dx":0.0017,"nx":28,"ny":28,"refTime":"2023-10-21T03:00:00:Z","depth":0,"parameterNumber":3,"parameterNumberName":"V-component_of_WINDS"},"data":[0,0,0,0,0,0,0,0,0,0,0,0,0,0,0,0,0,0,0,0,0,0,0,0,0,0,0,0,0,0,0,0,0,0,0,0,0,0,0,0,0,0,0,0,0,0,0,0,0,0,0,0,0,0,0,0,0,0,0.8953,0.8954,0,0.9004,0.9004,0.9005,0.8989,0.8988,0.8987,0.8986,0.9039,0.9041,0.9043,0,0,0,0,0,0,0,0,0,0,0,0,0,0.8845,0.8847,0.8953,0.8954,0.8955,0.9004,0.9004,0.9005,0.899,0.8988,0.8987,0.8986,0.9038,0.9041,0.9044,0,0,0,0,0,0,0,0,0,0,0,0,0,0.8893,0.8848,0.8953,0.8953,0.8953,0.9004,0.9004,0.9005,0.899,0.8988,0.8987,0.8985,0.9037,0.904,0.9044,0.9098,0,0,0.9055,0.9057,0,0,0,0,0,0,0,0,0.8891,0.8897,0.8952,0.8953,0.8953,0.8989,0.8985,0.9036,0.899,0.8976,0.8986,0.8984,0.9023,0.9028,0.9041,0.9101,0.9103,0.9055,0.9057,0.9059,0.906,0,0,0,0,0,0,0,0.8887,0.8895,0.8973,0.8953,0.8954,0.895,0.8956,0.8995,0.9008,0.8977,0.8976,0.8982,0.9023,0.9038,0.9042,0.9104,0.9055,0.9058,0.9061,0.9062,0.9211,0.9213,0,0,0,0,0,0,0.8883,0.8892,0.8972,0.8975,0.8917,0.8954,0.8959,0.8979,0.9008,0.901,0.8984,0.8981,0.9032,0.9038,0.9044,0.9109,0.9059,0.9062,0.9064,0.9209,0.9211,0.9213,0,0,0,0,0,0,0.8881,0.8891,0.897,0.8933,0.8943,0.8957,0.8979,0.8981,0.8995,0.9012,0.9015,0.8995,0.9031,0.9039,0.9085,0.9111,0.9064,0.9067,0.9207,0.921,0.9212,0.9241,0,0,0,0,0,0,0.8878,0.889,0.891,0.8934,0.8945,0.9009,0.8981,0.8983,0.9001,0.8999,0.9024,0.9027,0.9031,0.908,0.9088,0.9115,0.907,0.9205,0.9208,0.9212,0.9238,0.9244,0.925,0,0,0,0,0,0.8874,0.8916,0.8911,0.8921,0.8971,0.9011,0.9017,0.902,0.9003,0.9024,0.9035,0.9026,0.9107,0.9084,0.9094,0.9122,0.9203,0.9207,0.9211,0.9235,0.9243,0.925,0,0,0,0,0,0,0.8895,0.8919,0.8914,0.8965,0.8986,0.9008,0.9034,0.9029,0.9055,0.9052,0.9055,0.9061,0.9108,0.912,0.9095,0.9177,0.9153,0.9159,0.9167,0.9175,0.9181,0.9177,0.9073,0,0,0,0,0,0.8905,0.8936,0.8955,0.8998,0.9009,0.902,0.9038,0.9038,0.906,0.9069,0.9084,0.9106,0.9137,0.9156,0.9185,0.9239,0.9245,0.9264,0.927,0.9275,0.928,0.931,0.9318,0.9227,0.9227,0.9227,0,0,0.8927,0.8944,0.8963,0.9003,0.9019,0.9051,0.9028,0.9062,0.9086,0.9075,0.9119,0.9131,0.9156,0.9206,0.9229,0.9217,0.9307,0.928,0.9284,0.9286,0.9315,0.9324,0.9331,0.9229,0.9229,0.9229,0,0,0.8983,0.8999,0.9037,0.9054,0.908,0.9087,0.9096,0.9119,0.9127,0.9171,0.9164,0.9192,0.9244,0.9262,0.9279,0.9343,0.9335,0.9352,0.9384,0.9413,0.942,0.9427,0.945,0.9458,0.9358,0.9358,0.9358,0,0.9007,0.9054,0.9057,0.9093,0.911,0.9102,0.9141,0.9157,0.9191,0.9204,0.919,0.9256,0.9272,0.9327,0.9342,0.9356,0.9367,0.9349,0.9419,0.9425,0.9432,0.9453,0.9462,0.936,0.9359,0.9359,0.9359,0,0.9083,0.9116,0.9144,0.9176,0.9197,0.9234,0.9243,0.9264,0.9263,0.9272,0.9318,0.9337,0.937,0.9383,0.9383,0.9438,0.943,0.9418,0.9394,0.9442,0.9463,0.9471,0.9362,0.9362,0.9361,0.936,0,0,0.9152,0.9187,0.9197,0.9212,0.924,0.9265,0.9302,0.9334,0.9353,0.9377,0.9408,0.9453,0.9442,0.946,0.9461,0.9487,0.9537,0.9472,0.9472,0.9483,0.96,0.9608,0.9618,0.9533,0.9534,0.9536,0.9598,0,0.921,0.9275,0.9279,0.9337,0.9368,0.9361,0.9394,0.9414,0.9424,0.9452,0.9462,0.9494,0.9477,0.9488,0.9514,0.9526,0.956,0.9521,0.9562,0.9563,0.9555,0.9629,0.9638,0.9695,0.9606,0.9607,0.9608,0,0.9286,0.9313,0.9374,0.9399,0.9412,0.9441,0.9471,0.9498,0.9521,0.9527,0.9548,0.9546,0.9584,0.9559,0.9612,0.9585,0.9602,0.9611,0.9613,0.9617,0.9588,0.9634,0.9714,0.9722,0.9621,0.962,0.9619,0,0.9331,0.9382,0.9425,0.9438,0.9468,0.9488,0.9502,0.9524,0.9543,0.957,0.9583,0.9614,0.963,0.9654,0.9661,0.9642,0.9714,0.969,0.972,0.9719,0.9734,0.9733,0.9818,0.9746,0.9746,0.9746,0.9746,0,0.9395,0.9433,0.9445,0.9472,0.9515,0.952,0.9562,0.9574,0.9594,0.9623,0.962,0.9647,0.9655,0.9684,0.969,0.9733,0.9741,0.9746,0.9747,0.9746,0.9745,0.9757,0.9752,0.9748,0.9748,0.9747,0.9747,0,0.945,0.9461,0.9508,0.9532,0.954,0.957,0.9591,0.9617,0.9626,0.9664,0.9673,0.9688,0.9722,0.9731,0.9772,0.9776,0.9827,0.9824,0.9818,0.9818,0.9848,0.9845,0.9942,0.9955,0.9875,0.9876,0.9877,0,0.949,0.9519,0.9547,0.9567,0.9581,0.9612,0.9632,0.9639,0.966,0.969,0.9712,0.9746,0.9773,0.9829,0.9843,0.9875,0.9873,0.9905,0.9877,0.9876,0.9873,0.9871,0.9874,0.991,0.991,0.9911,0.9912,0,0.956,0.9564,0.9592,0.9624,0.9648,0.9672,0.9696,0.9712,0.9722,0.9746,0.9781,0.9802,0.9845,0.9878,0.991,0.9924,0.992,0.992,0.9929,0.9928,0.9923,0.9926,0.9832,0.9918,0.9917,0.9917,0.9916,0.9916,0.9608,0.9634,0.9658,0.9691,0.971,0.9732,0.9758,0.9771,0.98,0.9835,0.9838,0.9876,0.99,0.9943,0.9958,0.9989,0.9979,0.9991,0.9994,0.9997,0.9999,0.9919,0.9994,0.9994,0.9994,0.9994,0.9994,0,0.9677,0.9693,0.9723,0.9756,0.9782,0.9777,0.9803,0.9825,0.9858,0.9881,0.9909,0.9949,0.9982,1.0,1.0033,1.0054,1.0052,1.0062,1.006,1.0063,1.0006,0.9995,1.0062,1.0062,1.0062,1.0062,1.0062,1.0062,0.9716,0.9759,0.9767,0.982,0.9835,0.9872,0.9888,0.9909,0.9927,0.9973,1.0,1.0012,1.0033,1.0068,1.0098,1.0102,1.0114,1.0125,1.0128,1.0074,1.0067,1.0061,1.005,1.0128,1.0128,1.0182,1.0183,1.0183]}]]